[[{"header":{"parameterUnit":"m.s-1","parameterCategory":1,"la1":30.2991,"la2":30.254,"lo1":-89.0895,"lo2":-89.0444,"dy":0.0017,"dx":0.0017,"nx":28,"ny":28,"refTime":"2025-03-26T03:00:00:Z","depth":0,"parameterNumber":2,"parameterNumberName":"U-component_of_WINDS"},"data":[0,0,0,0,0,0,0,0,0,0,0,0,0,0,0,0,0,0,0,0,0,0,0,0,0,0,0,0,0,0,0,0,0,0,0,0,0,0,0,0,0,0,0,0,0,0,0,0,0,0,0,0,0,0,0,0,0,0,-0.2547,-0.2547,0,-0.2486,-0.2485,-0.2485,-0.2451,-0.2451,-0.2451,-0.2451,-0.2388,-0.2387,-0.2385,0,0,0,0,0,0,0,0,0,0,0,0,0,-0.2637,-0.2636,-0.2547,-0.2546,-0.2546,-0.2486,-0.2485,-0.2484,-0.2451,-0.2451,-0.2451,-0.2451,-0.2389,-0.2387,-0.2385,0,0,0,0,0,0,0,0,0,0,0,0,0,-0.2589,-0.2635,-0.2547,-0.2522,-0.2519,-0.2486,-0.2485,-0.2484,-0.2451,-0.2451,-0.2451,-0.2451,-0.2389,-0.2387,-0.2385,-0.2372,0,0,-0.2377,-0.2376,0,0,0,0,0,0,0,0,-0.2592,-0.2586,-0.2527,-0.2524,-0.252,-0.2476,-0.2494,-0.2447,-0.2451,-0.2477,-0.2451,-0.2451,-0.2418,-0.2413,-0.2402,-0.2369,-0.2367,-0.2377,-0.2376,-0.2375,-0.2374,0,0,0,0,0,0,0,-0.2595,-0.2588,-0.2523,-0.2526,-0.2522,-0.2514,-0.2507,-0.2485,-0.2449,-0.2475,-0.2472,-0.2466,-0.2416,-0.2404,-0.24,-0.2366,-0.2377,-0.2375,-0.2374,-0.2373,-0.2322,-0.2322,0,0,0,0,0,0,-0.2603,-0.2591,-0.2525,-0.2521,-0.2557,-0.2513,-0.2505,-0.249,-0.2449,-0.2442,-0.2466,-0.2464,-0.2408,-0.2403,-0.2398,-0.2381,-0.2375,-0.2372,-0.2371,-0.2322,-0.2322,-0.2322,0,0,0,0,0,0,-0.2605,-0.2597,-0.2527,-0.2556,-0.2546,-0.2511,-0.2495,-0.2489,-0.2477,-0.2442,-0.2435,-0.246,-0.2408,-0.2401,-0.2379,-0.2379,-0.2371,-0.2369,-0.2322,-0.2322,-0.2322,-0.2348,0,0,0,0,0,0,-0.2607,-0.2598,-0.2592,-0.2556,-0.2545,-0.251,-0.2495,-0.2488,-0.2473,-0.2471,-0.2435,-0.2429,-0.2407,-0.2383,-0.2377,-0.2375,-0.2367,-0.2322,-0.2322,-0.2322,-0.2347,-0.2349,-0.2351,0,0,0,0,0,-0.2611,-0.2602,-0.2592,-0.2584,-0.2537,-0.251,-0.2503,-0.2479,-0.2473,-0.2468,-0.2446,-0.243,-0.238,-0.2381,-0.2374,-0.2371,-0.2322,-0.2322,-0.2322,-0.2346,-0.2349,-0.2351,0,0,0,0,0,0,-0.2638,-0.2596,-0.2585,-0.2564,-0.2541,-0.2504,-0.2496,-0.2482,-0.2459,-0.2458,-0.2428,-0.2421,-0.2402,-0.2384,-0.2387,-0.2358,-0.2349,-0.2348,-0.237,-0.2372,-0.2374,-0.2378,-0.2365,0,0,0,0,0,-0.2642,-0.2623,-0.2587,-0.2572,-0.2561,-0.2531,-0.2518,-0.2501,-0.2476,-0.2466,-0.2442,-0.2418,-0.2397,-0.2384,-0.2362,-0.2345,-0.2337,-0.234,-0.2342,-0.2343,-0.2342,-0.2334,-0.2335,-0.2323,-0.2323,-0.2323,0,0,-0.2649,-0.2624,-0.2614,-0.2577,-0.2557,-0.2539,-0.2523,-0.2503,-0.249,-0.2463,-0.2441,-0.2423,-0.2395,-0.2375,-0.2366,-0.236,-0.2344,-0.2344,-0.2345,-0.2343,-0.2334,-0.2335,-0.2336,-0.2323,-0.2323,-0.2323,0,0,-0.2653,-0.2632,-0.2617,-0.2598,-0.2568,-0.2549,-0.2546,-0.2511,-0.2499,-0.2476,-0.2456,-0.244,-0.2404,-0.2385,-0.2371,-0.237,-0.2356,-0.2364,-0.2374,-0.2365,-0.2366,-0.2367,-0.2368,-0.2368,-0.2364,-0.2364,-0.2364,0,-0.2666,-0.2637,-0.2612,-0.2594,-0.2579,-0.2555,-0.2541,-0.2523,-0.2488,-0.2479,-0.2474,-0.2429,-0.2408,-0.2385,-0.2385,-0.2374,-0.237,-0.2368,-0.2368,-0.2369,-0.2369,-0.2369,-0.237,-0.2365,-0.2365,-0.2365,-0.2365,0,-0.2655,-0.2635,-0.2627,-0.2595,-0.2579,-0.2563,-0.2537,-0.2524,-0.2509,-0.2491,-0.2469,-0.2444,-0.2418,-0.2411,-0.2396,-0.2386,-0.2384,-0.2374,-0.2364,-0.2372,-0.2372,-0.2372,-0.2367,-0.2366,-0.2366,-0.2366,0,0,-0.2672,-0.2628,-0.2625,-0.2611,-0.2578,-0.2562,-0.2547,-0.2521,-0.2512,-0.2489,-0.2475,-0.2447,-0.2438,-0.2422,-0.2405,-0.2397,-0.24,-0.2388,-0.2387,-0.2392,-0.239,-0.2398,-0.2398,-0.2391,-0.2391,-0.2391,-0.2392,0,-0.2672,-0.2641,-0.2619,-0.2598,-0.2581,-0.2559,-0.2545,-0.2523,-0.2506,-0.2489,-0.247,-0.2451,-0.244,-0.2431,-0.2422,-0.2402,-0.24,-0.2401,-0.2378,-0.2378,-0.2386,-0.2398,-0.2405,-0.2408,-0.2392,-0.2392,-0.2392,0,-0.2666,-0.2645,-0.2622,-0.2593,-0.2585,-0.2573,-0.2549,-0.2533,-0.2509,-0.2497,-0.248,-0.2463,-0.2447,-0.2439,-0.2417,-0.2418,-0.2408,-0.2397,-0.2396,-0.2393,-0.2385,-0.2395,-0.2408,-0.2409,-0.2391,-0.2391,-0.2392,0,-0.2682,-0.2648,-0.2631,-0.2619,-0.2584,-0.2576,-0.2561,-0.2537,-0.2524,-0.2504,-0.2495,-0.2473,-0.2461,-0.2445,-0.2423,-0.2419,-0.2403,-0.2393,-0.2393,-0.2393,-0.239,-0.239,-0.2401,-0.2383,-0.2383,-0.2383,-0.2383,0,-0.2684,-0.2671,-0.2638,-0.2627,-0.2612,-0.2588,-0.2574,-0.2557,-0.2537,-0.2523,-0.2502,-0.249,-0.2462,-0.2446,-0.2429,-0.2413,-0.2408,-0.2398,-0.2394,-0.24,-0.2401,-0.2393,-0.2392,-0.2383,-0.2383,-0.2383,-0.2383,0,-0.2699,-0.2676,-0.2655,-0.2624,-0.2616,-0.2607,-0.2581,-0.257,-0.2553,-0.2536,-0.253,-0.2503,-0.2484,-0.246,-0.2433,-0.2422,-0.2408,-0.2402,-0.2417,-0.2414,-0.2415,-0.2416,-0.2421,-0.2421,-0.2403,-0.2403,-0.2403,0,-0.2701,-0.269,-0.2659,-0.2649,-0.2634,-0.2618,-0.2605,-0.2581,-0.2569,-0.2542,-0.2535,-0.2514,-0.2496,-0.2467,-0.2445,-0.2425,-0.2418,-0.2421,-0.2415,-0.2422,-0.2419,-0.242,-0.2419,-0.2423,-0.2423,-0.2423,-0.2424,0,-0.2708,-0.2697,-0.2679,-0.2658,-0.2644,-0.2626,-0.2607,-0.26,-0.2573,-0.256,-0.2541,-0.2527,-0.2501,-0.2481,-0.2459,-0.2444,-0.243,-0.2426,-0.2425,-0.2431,-0.2441,-0.2436,-0.2422,-0.2426,-0.2426,-0.2426,-0.2425,-0.2425,-0.2716,-0.2707,-0.2684,-0.2665,-0.2649,-0.2633,-0.2622,-0.2603,-0.2587,-0.2564,-0.2551,-0.2532,-0.2511,-0.2479,-0.2465,-0.2451,-0.2446,-0.2444,-0.2443,-0.2443,-0.2446,-0.2444,-0.2447,-0.2447,-0.2446,-0.2446,-0.2446,0,-0.2722,-0.2707,-0.269,-0.2665,-0.2651,-0.264,-0.262,-0.2609,-0.2592,-0.2573,-0.2557,-0.2536,-0.2517,-0.2495,-0.2475,-0.2468,-0.2461,-0.2464,-0.2464,-0.2461,-0.2451,-0.2454,-0.247,-0.247,-0.247,-0.247,-0.247,-0.247,-0.2724,-0.2708,-0.2695,-0.2672,-0.2656,-0.2638,-0.2628,-0.2613,-0.2598,-0.2575,-0.256,-0.2546,-0.2526,-0.2505,-0.2488,-0.2482,-0.2476,-0.248,-0.2473,-0.2464,-0.2462,-0.246,-0.2462,-0.2479,-0.2479,-0.2484,-0.2484,-0.2484]},{"header":{"parameterUnit":"m.s-1","parameterCategory":1,"la1":30.2991,"la2":30.254,"lo1":-89.0895,"lo2":-89.0444,"dy":0.0017,"dx":0.0017,"nx":28,"ny":28,"refTime":"2025-03-26T03:00:00:Z","depth":0,"parameterNumber":3,"parameterNumberName":"V-component_of_WINDS"},"data":[0,0,0,0,0,0,0,0,0,0,0,0,0,0,0,0,0,0,0,0,0,0,0,0,0,0,0,0,0,0,0,0,0,0,0,0,0,0,0,0,0,0,0,0,0,0,0,0,0,0,0,0,0,0,0,0,0,0,1.426,1.426,0,1.4249,1.4248,1.4248,1.4227,1.4227,1.4227,1.4226,1.4215,1.4215,1.4215,0,0,0,0,0,0,0,0,0,0,0,0,0,1.4264,1.4264,1.426,1.426,1.426,1.4249,1.4248,1.4248,1.4228,1.4227,1.4227,1.4226,1.4215,1.4215,1.4215,0,0,0,0,0,0,0,0,0,0,0,0,0,1.4258,1.4264,1.426,1.4248,1.4247,1.4249,1.4248,1.4248,1.4228,1.4227,1.4226,1.4226,1.4215,1.4215,1.4215,1.4228,0,0,1.4216,1.4216,0,0,0,0,0,0,0,0,1.4259,1.4258,1.425,1.4249,1.4247,1.4239,1.4246,1.4242,1.4228,1.4235,1.4226,1.4226,1.4224,1.4223,1.4222,1.4228,1.4227,1.4216,1.4216,1.4216,1.4216,0,0,0,0,0,0,0,1.4259,1.4258,1.4255,1.425,1.4248,1.4243,1.4242,1.4245,1.4233,1.4234,1.4233,1.4232,1.4223,1.4222,1.4222,1.4227,1.4216,1.4216,1.4216,1.4216,1.4243,1.4244,0,0,0,0,0,0,1.4261,1.4259,1.4256,1.4255,1.4252,1.4244,1.4242,1.4242,1.4233,1.4231,1.4232,1.4231,1.4222,1.4222,1.4221,1.4236,1.4216,1.4216,1.4216,1.4242,1.4243,1.4244,0,0,0,0,0,0,1.4261,1.4261,1.4256,1.4257,1.4256,1.4244,1.4245,1.4242,1.4242,1.4231,1.4229,1.4234,1.4222,1.4221,1.4227,1.4235,1.4216,1.4216,1.4242,1.4243,1.4243,1.4265,0,0,0,0,0,0,1.4261,1.4261,1.4266,1.4257,1.4256,1.4262,1.4245,1.4243,1.4242,1.424,1.4232,1.423,1.4221,1.4227,1.4227,1.4235,1.4216,1.4241,1.4242,1.4243,1.4264,1.4267,1.427,0,0,0,0,0,1.4262,1.4272,1.4266,1.4266,1.4261,1.4262,1.4262,1.4251,1.4243,1.4247,1.4241,1.423,1.4234,1.4227,1.4227,1.4236,1.424,1.4242,1.4243,1.4263,1.4266,1.427,0,0,0,0,0,0,1.4283,1.4271,1.4264,1.4272,1.4268,1.4259,1.4264,1.4255,1.4254,1.4252,1.4239,1.4238,1.4245,1.4241,1.4234,1.4248,1.4236,1.4237,1.4251,1.4254,1.4257,1.4258,1.4216,0,0,0,0,0,1.4288,1.429,1.428,1.4288,1.4287,1.4276,1.4276,1.4268,1.4264,1.4262,1.4256,1.4252,1.4252,1.4253,1.4253,1.4263,1.4261,1.4269,1.4272,1.4274,1.4276,1.4281,1.4285,1.4249,1.4249,1.4249,0,0,1.43,1.4294,1.4296,1.4292,1.4288,1.4291,1.4275,1.4278,1.4279,1.4262,1.4267,1.4263,1.4258,1.4266,1.4269,1.4263,1.4286,1.4276,1.4278,1.4278,1.4283,1.4287,1.429,1.425,1.4249,1.4249,0,0,1.4323,1.4318,1.4324,1.4321,1.4315,1.4308,1.431,1.4301,1.4298,1.4302,1.429,1.4292,1.4293,1.429,1.4288,1.431,1.4301,1.431,1.4325,1.4331,1.4334,1.4336,1.4344,1.4347,1.4312,1.4312,1.4312,0,1.4338,1.4341,1.4329,1.4333,1.4332,1.4317,1.4323,1.432,1.4315,1.4315,1.4308,1.4309,1.4304,1.4312,1.4317,1.4316,1.4318,1.4311,1.4334,1.4337,1.4339,1.4346,1.435,1.4313,1.4313,1.4313,1.4313,0,1.436,1.4362,1.4368,1.4363,1.4363,1.4368,1.4357,1.4358,1.4351,1.4344,1.4349,1.4344,1.4342,1.4343,1.4336,1.435,1.4346,1.4337,1.4324,1.4344,1.4351,1.4353,1.4315,1.4314,1.4314,1.4314,0,0,1.4396,1.4384,1.4387,1.4384,1.4377,1.4379,1.4383,1.4382,1.4383,1.438,1.4384,1.4385,1.4376,1.4375,1.4367,1.4372,1.439,1.4362,1.4362,1.4368,1.4405,1.4412,1.4416,1.4383,1.4384,1.4384,1.4406,0,1.4417,1.4424,1.4414,1.4423,1.4425,1.4411,1.4415,1.4411,1.4405,1.4406,1.44,1.4401,1.439,1.4389,1.4393,1.4387,1.4397,1.4385,1.4387,1.4387,1.4389,1.4419,1.4427,1.4448,1.4408,1.4409,1.4409,0,1.4442,1.4441,1.445,1.4443,1.4443,1.4447,1.4445,1.4446,1.4441,1.4437,1.4435,1.4426,1.443,1.4417,1.4423,1.4415,1.4416,1.4413,1.4413,1.4413,1.44,1.4421,1.4454,1.4457,1.4413,1.4413,1.4412,0,1.4468,1.4468,1.4474,1.4472,1.4463,1.4466,1.4463,1.4458,1.4457,1.4456,1.4455,1.4454,1.4453,1.4453,1.4443,1.4435,1.4451,1.4437,1.4447,1.4448,1.4451,1.4451,1.4486,1.4451,1.4451,1.4451,1.4451,0,1.4493,1.45,1.4485,1.4489,1.4496,1.4484,1.4492,1.4487,1.4482,1.4485,1.4472,1.4475,1.4462,1.4464,1.4456,1.4463,1.4462,1.4459,1.4457,1.446,1.4461,1.4461,1.4459,1.4452,1.4452,1.4451,1.4451,0,1.4523,1.4513,1.4519,1.451,1.4508,1.4514,1.4506,1.4509,1.4503,1.4506,1.4506,1.4496,1.4497,1.4488,1.4487,1.4482,1.4492,1.4487,1.4494,1.4492,1.4503,1.4502,1.4539,1.4543,1.4505,1.4506,1.4506,0,1.454,1.4544,1.4536,1.4537,1.4534,1.4535,1.4535,1.4524,1.4524,1.4519,1.4523,1.4523,1.4523,1.4525,1.4518,1.4517,1.4513,1.4525,1.4513,1.4516,1.4514,1.4514,1.4514,1.4528,1.4529,1.4529,1.4529,0,1.4571,1.4566,1.4566,1.4564,1.4564,1.4562,1.456,1.4561,1.4549,1.455,1.4551,1.455,1.455,1.455,1.4548,1.4545,1.4535,1.4534,1.4536,1.454,1.4543,1.4542,1.4501,1.4533,1.4533,1.4532,1.4532,1.4532,1.4595,1.4598,1.4593,1.4594,1.4591,1.4589,1.4591,1.4585,1.4585,1.4584,1.4577,1.4579,1.4575,1.4571,1.4569,1.4571,1.4564,1.4568,1.4569,1.457,1.4572,1.4543,1.457,1.457,1.457,1.457,1.457,0,1.4625,1.4621,1.4622,1.4619,1.4619,1.461,1.4607,1.4608,1.461,1.4606,1.4606,1.4607,1.4608,1.46,1.46,1.4603,1.4599,1.4603,1.4603,1.4603,1.4577,1.4575,1.4607,1.4607,1.4607,1.4607,1.4607,1.4607,1.4642,1.4648,1.4642,1.4646,1.4642,1.4644,1.4643,1.4642,1.4639,1.4641,1.4641,1.4636,1.4631,1.463,1.463,1.4628,1.4629,1.4635,1.4631,1.4608,1.4604,1.4601,1.4599,1.4635,1.4635,1.4656,1.4657,1.4657]}]]